• In Moldova, Republic
  • List of Countries
  • For 7 days
  • Water Temperature
  • Satellite Maps
  • Weather Map
  • Weather Widgets
  • user-avatar
    Login

    Hourly Weather Mayrhofen

    Today, 21 February, Tuesday

    Time Temperature Precipitation Wind Pressure Humidity
    00:00 -5°C° 0.2 mm 2 mps 616 mmHg 91%
    01:00 -3°C° 0 mm 2 mps 616 mmHg 91%
    02:00 -3°C° 0.5 mm 2 mps 616 mmHg 93%
    03:00 -3°C° 0.5 mm 2 mps 616 mmHg 94%
    04:00 -2°C° 0.5 mm 2 mps 616 mmHg 95%
    05:00 -2°C° 0.2 mm 2 mps 616 mmHg 96%
    06:00 -3°C° 0.2 mm 2 mps 615 mmHg 96%
    07:00 -3°C° 0.2 mm 2 mps 615 mmHg 96%
    08:00 -2°C° 0.2 mm 2 mps 615 mmHg 97%
    09:00 -1°C° 0.2 mm 2 mps 615 mmHg 97%
    10:00 +2°C° 0.2 mm 1 mps 616 mmHg 98%
    11:00 +3°C° 0.5 mm 1 mps 616 mmHg 97%
    12:00 +3°C° 0.5 mm 1 mps 616 mmHg 97%
    13:00 +3°C° 0.5 mm 1 mps 615 mmHg 97%
    14:00 +3°C° 0.8 mm 1 mps 616 mmHg 97%
    15:00 +3°C° 0.8 mm 1 mps 615 mmHg 97%
    16:00 +2°C° 0.8 mm 1 mps 615 mmHg 97%
    17:00 +1°C° 0.7 mm 2 mps 615 mmHg 97%
    18:00 +1°C° 0.7 mm 2 mps 615 mmHg 97%
    19:00 -1°C° 0.7 mm 2 mps 616 mmHg 97%
    20:00 -1°C° 0.3 mm 2 mps 616 mmHg 97%
    21:00 -2°C° 0.3 mm 2 mps 615 mmHg 97%
    22:00 -2°C° 0.3 mm 2 mps 615 mmHg 97%
    23:00 -3°C° 0 mm 2 mps 615 mmHg 97%

    Tomorrow, 22 February, Wednesday

    Time Temperature Precipitation Wind Pressure Humidity
    00:00 -2°C° 0 mm 1 mps 615 mmHg 97%
    01:00 -3°C° 0 mm 1 mps 614 mmHg 96%
    02:00 -3°C° 0 mm 1 mps 614 mmHg 96%
    03:00 -4°C° 0 mm 1 mps 613 mmHg 96%
    04:00 -4°C° 0 mm 1 mps 613 mmHg 96%
    05:00 -4°C° 0 mm 1 mps 612 mmHg 96%
    06:00 -6°C° 0 mm 1 mps 612 mmHg 95%
    07:00 -6°C° 0 mm 1 mps 612 mmHg 95%
    08:00 -2°C° 0 mm 1 mps 613 mmHg 95%
    09:00 0°C° 0 mm 1 mps 614 mmHg 94%
    10:00 +3°C° 0 mm 1 mps 615 mmHg 93%
    11:00 +3°C° 0 mm 1 mps 615 mmHg 93%
    12:00 +4°C° 0 mm 1 mps 615 mmHg 93%
    13:00 +5°C° 0 mm 1 mps 615 mmHg 93%
    14:00 +4°C° 0 mm 1 mps 615 mmHg 94%
    15:00 +4°C° 0 mm 1 mps 615 mmHg 95%
    16:00 +4°C° 0 mm 1 mps 615 mmHg 96%
    17:00 +2°C° 0 mm 1 mps 614 mmHg 96%
    18:00 -1°C° 0 mm 1 mps 613 mmHg 96%
    19:00 -3°C° 0 mm 1 mps 612 mmHg 97%
    20:00 -3°C° 0 mm 1 mps 612 mmHg 95%
    21:00 -4°C° 0 mm 1 mps 612 mmHg 94%
    22:00 -4°C° 0 mm 1 mps 612 mmHg 93%
    23:00 -4°C° 0 mm 1 mps 612 mmHg 92%

    Day after tomorrow, 23 February, Thursday

    Time Temperature Precipitation Wind Pressure Humidity
    00:00 -3°C° 0 mm 1 mps 612 mmHg 91%
    01:00 -3°C° 0 mm 1 mps 612 mmHg 90%
    02:00 -3°C° 0 mm 1 mps 612 mmHg 89%
    03:00 -3°C° 0 mm 1 mps 611 mmHg 88%
    04:00 -4°C° 0 mm 1 mps 611 mmHg 86%
    05:00 -6°C° 0 mm 2 mps 611 mmHg 84%
    06:00 -6°C° 0 mm 2 mps 611 mmHg 83%
    07:00 -6°C° 0 mm 2 mps 611 mmHg 81%
    08:00 -3°C° 0 mm 2 mps 612 mmHg 82%
    09:00 -1°C° 0 mm 2 mps 612 mmHg 84%
    10:00 +2°C° 0 mm 2 mps 613 mmHg 86%
    11:00 +2°C° 0 mm 2 mps 613 mmHg 86%
    12:00 +3°C° 0 mm 2 mps 612 mmHg 86%
    13:00 +4°C° 0 mm 2 mps 612 mmHg 87%
    14:00 +4°C° 0 mm 2 mps 612 mmHg 89%
    15:00 +3°C° 0 mm 2 mps 611 mmHg 91%
    16:00 +3°C° 0 mm 2 mps 610 mmHg 93%
    17:00 +2°C° 0 mm 2 mps 610 mmHg 94%
    18:00 +1°C° 0 mm 2 mps 610 mmHg 95%
    19:00 -2°C° 0 mm 2 mps 610 mmHg 96%
    20:00 -2°C° 0 mm 2 mps 609 mmHg 96%
    21:00 -2°C° 0 mm 2 mps 609 mmHg 96%
    22:00 -3°C° 0 mm 2 mps 609 mmHg 96%
    23:00 -3°C° 0 mm 2 mps 609 mmHg 96%

    24 February, Friday

    Time Temperature Precipitation Wind Pressure Humidity
    00:00 -3°C° 0 mm 2 mps 608 mmHg 95%
    01:00 -3°C° 0 mm 2 mps 608 mmHg 95%
    02:00 -3°C° 0 mm 2 mps 607 mmHg 95%
    03:00 -3°C° 0 mm 2 mps 607 mmHg 94%
    04:00 -3°C° 0 mm 2 mps 607 mmHg 94%
    05:00 -3°C° 0.7 mm 2 mps 607 mmHg 95%
    06:00 -1°C° 0.7 mm 1 mps 607 mmHg 96%
    07:00 -1°C° 0.7 mm 1 mps 607 mmHg 97%
    08:00 -1°C° 0.7 mm 1 mps 608 mmHg 96%
    09:00 -3°C° 0.7 mm 2 mps 608 mmHg 95%
    10:00 -3°C° 0.7 mm 2 mps 608 mmHg 94%
    11:00 -3°C° 0.3 mm 2 mps 608 mmHg 92%
    12:00 -3°C° 0.3 mm 2 mps 608 mmHg 89%
    13:00 -2°C° 0.3 mm 2 mps 608 mmHg 87%
    14:00 -3°C° 0.1 mm 2 mps 608 mmHg 87%
    15:00 -3°C° 0.1 mm 2 mps 607 mmHg 87%
    16:00 -3°C° 0.1 mm 2 mps 607 mmHg 86%
    17:00 -4°C° 1.1 mm 2 mps 608 mmHg 89%
    18:00 -5°C° 1.1 mm 2 mps 608 mmHg 91%
    19:00 -6°C° 1.1 mm 2 mps 609 mmHg 93%
    20:00 -6°C° 1.3 mm 2 mps 609 mmHg 94%
    21:00 -7°C° 1.3 mm 2 mps 610 mmHg 94%
    22:00 -7°C° 1.3 mm 2 mps 611 mmHg 95%
    23:00 -7°C° 0.6 mm 2 mps 611 mmHg 95%

    25 February, Saturday

    Time Temperature Precipitation Wind Pressure Humidity
    00:00 -7°C° 0.6 mm 2 mps 611 mmHg 95%
    01:00 -8°C° 0.6 mm 2 mps 612 mmHg 95%
    02:00 -8°C° 0.3 mm 2 mps 612 mmHg 95%
    03:00 -8°C° 0.3 mm 2 mps 613 mmHg 95%
    04:00 -9°C° 0.3 mm 2 mps 613 mmHg 95%
    05:00 -9°C° 0.2 mm 2 mps 614 mmHg 95%
    06:00 -9°C° 0.2 mm 2 mps 614 mmHg 94%
    07:00 -9°C° 0.2 mm 2 mps 614 mmHg 94%
    08:00 -7°C° 0.1 mm 2 mps 615 mmHg 93%
    09:00 -5°C° 0.1 mm 2 mps 616 mmHg 92%
    10:00 -3°C° 0.1 mm 2 mps 617 mmHg 91%
    11:00 -2°C° 0.1 mm 2 mps 617 mmHg 92%
    12:00 +1°C° 0.1 mm 1 mps 617 mmHg 92%
    13:00 +2°C° 0.1 mm 1 mps 617 mmHg 92%
    14:00 +1°C° 0.3 mm 2 mps 617 mmHg 93%
    15:00 +1°C° 0.3 mm 2 mps 616 mmHg 94%
    16:00 +1°C° 0.3 mm 2 mps 616 mmHg 94%
    17:00 -1°C° 0.1 mm 2 mps 616 mmHg 95%
    18:00 -2°C° 0.1 mm 2 mps 616 mmHg 95%
    19:00 -3°C° 0.1 mm 2 mps 616 mmHg 95%
    20:00 -2°C° 0.6 mm 2 mps 616 mmHg 95%
    21:00 -2°C° 0.6 mm 2 mps 616 mmHg 95%
    22:00 0°C° 0.6 mm 1 mps 617 mmHg 96%
    23:00 0°C° 0.3 mm 1 mps 617 mmHg 95%

    26 February, Sunday

    Time Temperature Precipitation Wind Pressure Humidity
    00:00 0°C° 0.3 mm 1 mps 617 mmHg 95%
    01:00 0°C° 0.3 mm 1 mps 617 mmHg 95%
    02:00 0°C° 0.1 mm 1 mps 617 mmHg 95%
    03:00 0°C° 0.1 mm 1 mps 617 mmHg 94%
    04:00 0°C° 0.1 mm 1 mps 617 mmHg 94%
    05:00 -1°C° 0 mm 1 mps 616 mmHg 94%
    06:00 -2°C° 0 mm 1 mps 616 mmHg 94%
    07:00 -3°C° 0 mm 1 mps 616 mmHg 95%
    08:00 -1°C° 0 mm 1 mps 617 mmHg 95%
    09:00 +1°C° 0 mm 1 mps 618 mmHg 95%
    10:00 +3°C° 0 mm 1 mps 619 mmHg 95%
    11:00 +4°C° 0 mm 1 mps 619 mmHg 94%
    12:00 +5°C° 0 mm 1 mps 619 mmHg 93%
    13:00 +5°C° 0 mm 1 mps 619 mmHg 92%
    14:00 +5°C° 0 mm 1 mps 619 mmHg 93%
    15:00 +5°C° 0 mm 1 mps 618 mmHg 94%
    16:00 +5°C° 0 mm 1 mps 618 mmHg 95%
    17:00 +2°C° 0 mm 1 mps 617 mmHg 95%
    18:00 0°C° 0 mm 1 mps 616 mmHg 95%
    19:00 -3°C° 0 mm 1 mps 615 mmHg 95%
    20:00 -2°C° 0 mm 1 mps 615 mmHg 93%
    21:00 -2°C° 0 mm 1 mps 615 mmHg 90%
    22:00 -2°C° 0 mm 1 mps 615 mmHg 87%
    23:00 -3°C° 0 mm 2 mps 615 mmHg 87%
    Show more